Location: Recife
(8.0585°S, 34.8848°W)
Time: 11:34:02
(UTC-03:00)

Vanguard 2 Rocket - Pass Details

Date: 20 April 2026
Orbit: 553 x 3286 km, 32.9° (Epoch: 8 May)

Event Time Altitude Azimuth Distance (km) Brightness Sun altitude
Rises 12:58:10 0° 237° (WSW) 6,604 11.4 58.3°
Reaches altitude 10° 13:02:10 10° 238° (WSW) 5,818 11.3 57.5°
Maximum altitude 13:21:47 84° 323° (NW) 3,283 11.0 53.5°
Drops below altitude 10° 13:39:56 10° 51° (NE) 5,440 10.8 49.7°
Sets 13:43:32 0° 52° (NE) 6,178 11.0 48.9°
